Location: *
(37.5724°S, 58.0067°E)
Time: 07:22:19
(UTC+00:00)

Envisat - Pass Details

Date: 02 December 2022
Orbit: 763 x 765 km, 98.2° (Epoch: 07 February)

Event Time Altitude Azimuth Distance (km) Brightness Sun altitude
Rises 23:42:08 0° 7° (N) 3,220 5.9 -10.4°
Reaches altitude 10° 23:44:26 10° 5° (N) 2,302 5.2 -10.0°
Maximum altitude 23:49:29 68° 281° (WNW) 832 3.0 -9.2°
Drops below altitude 10° 23:54:37 10° 198° (SSW) 2,331 5.8 -8.4°
Sets 23:56:58 0° 195° (SSW) 3,265 6.6 -8.0°
